Verbier, Switzerland 16 day weather forecast

Slopes altitude range 1500 m - 3330m

Number of lifts: 89 Pistes: 412km

In some cases the lift and piste totals shown are for the ski domain (e.g. Three Valleys) rather than individual resort (e.g. Courchevel)

Overview

The 16 day weather forecast is fully updated 4 times every day.

    • Thu 21 JUN 2018
    • Thu 21
    • 12C 18C
    • Fri 22 JUN 2018
    • Fri 22
    • 7C 13C
    • Sat 23 JUN 2018
    • Sat 23
    • 7C 13C
    • Sun 24 JUN 2018
    • Sun 24
    • 7C 13C
    • Mon 25 JUN 2018
    • Mon 25
    • 7C 14C
    • Tue 26 JUN 2018
    • Tue 26
    • 9C 14C
    • Wed 27 JUN 2018
    • Wed 27
    • 10C 16C
    • Thu 28 JUN 2018
    • Thu 28
    • 10C 16C
    • Fri 29 JUN 2018
    • Fri 29
    • 10C 16C
    • Sat 30 JUN 2018
    • Sat 30
    • 9C 17C
    • Sun 01 JUL 2018
    • Sun 01
    • 12C 16C
    • Mon 02 JUL 2018
    • Mon 02
    • 7C 10C
    • Tue 03 JUL 2018
    • Tue 03
    • 6C 17C
    • Wed 04 JUL 2018
    • Wed 04
    • 4C 18C
    • Thu 05 JUL 2018
    • Thu 05
    • 7C 18C
    • Fri 06 JUL 2018
    • Fri 06
    • 8C 21C

Date:

Time Type 0°C level Temp Chill Snow Cloud Speed Gust Dir Press
18:00 3994m 18°C 18_6 0cm 74% 6mph 7mph 1017mB
21:00 3848m 9°C 9_4 0cm 96% 4mph 6mph 1019mB
0:00 3572m 9°C 9_5 0cm 97% 5mph 7mph 1019mB
3:00 3609m 8°C 8_5 0cm 99% 5mph 8mph 1019mB
6:00 3704m 7°C 7_6 0cm 98% 6mph 7mph 1020mB
9:00 3676m 7°C 7_9 0cm 90% 9mph 10mph 1019mB
12:00 3662m 13°C 13_11 0cm 92% 11mph 12mph 1018mB
15:00 3651m 13°C 13_10 0cm 92% 10mph 11mph 1018mB
18:00 3678m 13°C 13_9 0cm 46% 9mph 10mph 1020mB
21:00 3645m 3°C 3_4 0cm 0% 4mph 5mph 1023mB
0:00 3685m 2°C 2_3 0cm 0% 3mph 3mph 1024mB
3:00 3652m 1°C 1_2 0cm 0% 2mph 2mph 1024mB
6:00 3632m 1°C 1_3 0cm 0% 3mph 3mph 1023mB
9:00 3612m 7°C 7_7 0cm 0% 7mph 7mph 1022mB
12:00 3654m 13°C 13_8 0cm 0% 8mph 8mph 1021mB
15:00 3699m 14°C 14_9 0cm 0% 9mph 9mph 1019mB
18:00 3675m 14°C 14_7 0cm 16% 7mph 7mph 1020mB
21:00 3684m 4°C 4_2 0cm 62% 2mph 2mph 1021mB
0:00 3580m 3°C 3_1 0cm 63% 1mph 2mph 1021mB
3:00 3317m 4°C 4_3 0cm 100% 3mph 4mph 1020mB
6:00 3275m 4°C 4_4 0cm 99% 4mph 6mph 1019mB
9:00 3279m 7°C 7_8 0cm 61% 8mph 9mph 1018mB
12:00 3230m 13°C 13_10 0cm 31% 10mph 9mph 1017mB
15:00 3202m 13°C 13_10 0cm 0% 10mph 9mph 1016mB
18:00 3150m 13°C 13_8 0cm 19% 8mph 9mph 1017mB
21:00 3332m 4°C 4_3 0cm 60% 3mph 4mph 1019mB
0:00 3350m 3°C 3_3 0cm 77% 3mph 4mph 1019mB
3:00 3343m 2°C 2_2 0cm 94% 2mph 3mph 1018mB
6:00 3447m 2°C 2_2 0cm 93% 2mph 3mph 1018mB
9:00 3457m 7°C 7_7 0cm 0% 7mph 6mph 1017mB
12:00 3448m 14°C 14_8 0cm 0% 8mph 7mph 1016mB
15:00 3457m 14°C 14_9 0cm 0% 9mph 8mph 1016mB
18:00 3571m 14°C 14_7 0cm 6% 7mph 7mph 1016mB
21:00 3575m 5°C 5_3 0cm 16% 3mph 4mph 1019mB
0:00 3483m 4°C 4_5 0cm 8% 5mph 6mph 1019mB
3:00 3373m 4°C 4_5 0cm 0% 5mph 6mph 1018mB
6:00 3353m 4°C 4_2 0cm 0% 2mph 3mph 1018mB
9:00 3329m 9°C 9_4 0cm 2% 4mph 2mph 1017mB
12:00 3440m 14°C 14_6 0cm 21% 6mph 5mph 1016mB
15:00 3498m 14°C 14_6 0cm 85% 6mph 6mph 1016mB
18:00 3572m 14°C 14_5 0cm 71% 5mph 5mph 1016mB
21:00 3751m 6°C 6_3 0cm 1% 3mph 4mph 1019mB
0:00 3725m 6°C 6_5 0cm 1% 5mph 6mph 1019mB
3:00 3745m 5°C 5_4 0cm 0% 4mph 5mph 1019mB
6:00 3825m 5°C 5_1 0cm 0% 1mph 2mph 1019mB
9:00 3754m 10°C 10_6 0cm 0% 6mph 5mph 1018mB
12:00 3687m 16°C 16_7 0cm 0% 7mph 5mph 1016mB
15:00 3719m 16°C 16_8 0cm 19% 8mph 7mph 1015mB
18:00 3800m 16°C 16_6 0cm 21% 6mph 6mph 1016mB
21:00 3991m 6°C 6_3 0cm 0% 3mph 4mph 1018mB
0:00 3947m 6°C 6_5 0cm 0% 5mph 6mph 1017mB
3:00 3960m 6°C 6_4 0cm 0% 4mph 5mph 1017mB
6:00 3947m 5°C 5_1 0cm 0% 1mph 2mph 1016mB
9:00 3953m 10°C 10_5 0cm 0% 5mph 4mph 1014mB
12:00 3769m 16°C 16_7 0cm 0% 7mph 5mph 1012mB
15:00 3775m 16°C 16_8 0cm 0% 8mph 7mph 1011mB
18:00 3773m 17°C 17_6 0cm 7% 6mph 7mph 1011mB
21:00 3919m 8°C 8_1 0cm 76% 1mph 1mph 1012mB
0:00 3827m 6°C 6_3 0cm 44% 3mph 4mph 1012mB
3:00 3742m 5°C 5_3 0cm 1% 3mph 4mph 1011mB
6:00 3721m 5°C 5_3 0cm 1% 3mph 4mph 1011mB
9:00 3644m 10°C 10_5 0cm 0% 5mph 4mph 1009mB
12:00 3614m 16°C 16_7 0cm 1% 7mph 6mph 1008mB
15:00 3667m 16°C 16_8 0cm 42% 8mph 7mph 1007mB
18:00 3592m 16°C 16_6 0cm 44% 6mph 6mph 1007mB
21:00 3750m 6°C 6_1 0cm 17% 1mph 2mph 1010mB
0:00 3815m 6°C 6_3 0cm 32% 3mph 4mph 1010mB
3:00 3869m 5°C 5_3 0cm 93% 3mph 4mph 1010mB
6:00 3876m 5°C 5_2 0cm 86% 2mph 3mph 1009mB
9:00 3883m 9°C 9_5 0cm 14% 5mph 5mph 1008mB
12:00 3828m 17°C 17_6 0cm 7% 6mph 7mph 1007mB
15:00 3846m 18°C 18_7 0cm 34% 7mph 8mph 1006mB
18:00 3888m 18°C 18_5 0cm 20% 5mph 7mph 1007mB
21:00 3900m 9°C 9_2 0cm 9% 2mph 2mph 1008mB
0:00 3929m 8°C 8_5 0cm 20% 5mph 6mph 1008mB
3:00 3889m 8°C 8_5 0cm 85% 5mph 6mph 1007mB
6:00 3799m 8°C 8_3 0cm 76% 3mph 4mph 1006mB
9:00 3797m 12°C 12_3 0cm 7% 3mph 3mph 1005mB
12:00 3795m 16°C 16_6 0cm 30% 6mph 6mph 1005mB
Morning 0.947917mm 4 3445m 8°C 8_6 0cm 99% 6mph 9mph 1008mB
Afternoon 1.18229mm 0.0625 3596m 10°C 10_8 0cm 100% 8mph 11mph 1009mB
Morning 0.177083mm 1.25 3736m 7°C 7_5 0cm 85% 5mph 9mph 1013mB
Afternoon 0.00520833mm 0 3734m 17°C 17_9 0cm 28% 9mph 9mph 1013mB
Morning 0.0260417mm 0.25 4004m 7°C 7_3 0cm 48% 3mph 4mph 1018mB
Afternoon 0mm 0 3800m 18°C 18_8 0cm 28% 8mph 6mph 1017mB
Morning 0mm 0 3964m 8°C 8_4 0cm 1% 4mph 5mph 1020mB
Afternoon 0.00520833mm 0.0625 3936m 18°C 18_5 0cm 9% 5mph 4mph 1018mB
Morning 0.03125mm 0.375 4138m 9°C 9_4 0cm 49% 4mph 5mph 1021mB
Afternoon 0mm 0 4271m 21°C 21_5 0cm 1% 5mph 4mph 1019mB
Morning 0.015625mm 0.1875 4437m 10°C 10_4 0cm 8% 4mph 5mph 1022mB
Afternoon 0mm 0 4335m 22°C 22_7 0cm 0% 7mph 6mph 1021mB

16 day outlook at a glance

Forecast issued: 21/06/2018 22:59:46

Chat

Your comments and questions. In a resort? Let us know what it's like!


Characters left 250

For terms and conditions see Readers Comments on the Cookie and privacy policy page.